Time,TemperatureF,DewpointF,PressureIn,WindDirection,WindDirectionDegrees,WindSpeedMPH,WindSpeedGustMPH,Humidity,HourlyPrecipIn,Conditions,Clouds,dailyrainin,SoftwareType,DateUTC
2013-05-24 00:02:00,42.0,41.0,-100.00,North,355,0.0,0.0,99,-99.99,,,-99.99,,2013-05-24 05:02:00,
2013-05-24 00:12:00,42.0,41.0,-100.00,North,355,0.0,0.0,99,-99.99,,,-99.99,,2013-05-24 05:12:00,
2013-05-24 00:42:00,40.0,40.0,-100.00,North,355,0.0,0.0,99,-99.99,,,-99.99,,2013-05-24 05:42:00,
2013-05-24 00:52:00,40.0,40.0,-100.00,North,355,0.0,0.0,99,-99.99,,,-99.99,,2013-05-24 05:52:00,
2013-05-24 01:02:00,40.0,40.0,-100.00,North,355,0.0,0.0,99,-99.99,,,-99.99,,2013-05-24 06:02:00,
2013-05-24 01:12:00,40.0,40.0,-100.00,North,355,0.0,0.0,99,-99.99,,,-99.99,,2013-05-24 06:12:00,
2013-05-24 01:42:00,39.0,39.0,-100.00,North,355,0.0,0.0,99,-99.99,,,-99.99,,2013-05-24 06:42:00,
2013-05-24 01:52:00,39.0,39.0,-100.00,North,355,0.0,0.0,99,-99.99,,,-99.99,,2013-05-24 06:52:00,
2013-05-24 02:01:00,39.0,39.0,-100.00,North,355,0.0,0.0,99,-99.99,,,-99.99,,2013-05-24 07:01:00,
2013-05-24 02:11:00,39.0,39.0,-100.00,North,355,0.0,0.0,99,-99.99,,,-99.99,,2013-05-24 07:11:00,
2013-05-24 02:42:00,38.0,38.0,-100.00,North,355,0.0,0.0,99,-99.99,,,-99.99,,2013-05-24 07:42:00,
2013-05-24 02:52:00,38.0,38.0,-100.00,North,355,0.0,0.0,99,-99.99,,,-99.99,,2013-05-24 07:52:00,
2013-05-24 03:02:00,38.0,38.0,-100.00,North,355,0.0,0.0,99,-99.99,,,-99.99,,2013-05-24 08:02:00,
2013-05-24 03:11:00,38.0,38.0,-100.00,North,355,0.0,0.0,99,-99.99,,,-99.99,,2013-05-24 08:11:00,
2013-05-24 03:42:00,38.0,38.0,-100.00,North,355,0.0,0.0,99,-99.99,,,-99.99,,2013-05-24 08:42:00,
2013-05-24 03:52:00,38.0,38.0,-100.00,North,355,0.0,0.0,99,-99.99,,,-99.99,,2013-05-24 08:52:00,
2013-05-24 04:02:00,38.0,38.0,-100.00,North,355,0.0,0.0,99,-99.99,,,-99.99,,2013-05-24 09:02:00,
2013-05-24 04:11:00,38.0,38.0,-100.00,North,355,0.0,0.0,99,-99.99,,,-99.99,,2013-05-24 09:11:00,
2013-05-24 05:42:00,37.0,37.0,-100.00,North,355,0.0,0.0,99,-99.99,,,-99.99,,2013-05-24 10:42:00,
2013-05-24 05:53:00,37.0,37.0,-100.00,North,355,0.0,0.0,99,-99.99,,,-99.99,,2013-05-24 10:53:00,
2013-05-24 06:02:00,37.0,37.0,-100.00,North,355,0.0,0.0,99,-99.99,,,-99.99,,2013-05-24 11:02:00,
2013-05-24 06:12:00,37.0,37.0,-100.00,North,355,0.0,0.0,99,-99.99,,,-99.99,,2013-05-24 11:12:00,
2013-05-24 06:42:00,39.0,39.0,-100.00,North,355,0.0,0.0,99,-99.99,,,-99.99,,2013-05-24 11:42:00,
2013-05-24 06:52:00,39.0,39.0,-100.00,North,355,0.0,0.0,99,-99.99,,,-99.99,,2013-05-24 11:52:00,
2013-05-24 07:02:00,39.0,39.0,-100.00,North,355,0.0,0.0,99,-99.99,,,-99.99,,2013-05-24 12:02:00,
2013-05-24 07:11:00,39.0,39.0,-100.00,North,355,0.0,0.0,99,-99.99,,,-99.99,,2013-05-24 12:11:00,
2013-05-24 07:42:00,44.0,44.0,-100.00,North,355,0.0,0.0,99,-99.99,,,-99.99,,2013-05-24 12:42:00,
2013-05-24 07:52:00,44.0,44.0,-100.00,North,355,0.0,0.0,99,-99.99,,,-99.99,,2013-05-24 12:52:00,
2013-05-24 08:02:00,44.0,44.0,-100.00,North,355,0.0,0.0,99,-99.99,,,-99.99,,2013-05-24 13:02:00,
2013-05-24 08:11:00,44.0,44.0,-100.00,North,355,0.0,0.0,99,-99.99,,,-99.99,,2013-05-24 13:11:00,
2013-05-24 08:42:00,48.0,45.0,-100.00,North,355,0.0,0.0,87,-99.99,,,-99.99,,2013-05-24 13:42:00,
2013-05-24 08:52:00,48.0,45.0,-100.00,North,355,0.0,0.0,87,-99.99,,,-99.99,,2013-05-24 13:52:00,
2013-05-24 09:01:00,48.0,45.0,-100.00,North,355,0.0,0.0,87,-99.99,,,-99.99,,2013-05-24 14:01:00,
2013-05-24 09:11:00,48.0,45.0,-100.00,North,355,0.0,0.0,87,-99.99,,,-99.99,,2013-05-24 14:11:00,
2013-05-24 09:42:00,51.0,41.0,-100.00,North,355,0.0,0.0,69,-99.99,,,-99.99,,2013-05-24 14:42:00,
2013-05-24 09:52:00,51.0,41.0,-100.00,North,355,0.0,0.0,69,-99.99,,,-99.99,,2013-05-24 14:52:00,
2013-05-24 10:02:00,51.0,41.0,-100.00,North,355,0.0,0.0,69,-99.99,,,-99.99,,2013-05-24 15:02:00,
2013-05-24 10:11:00,51.0,41.0,-100.00,North,355,0.0,0.0,69,-99.99,,,-99.99,,2013-05-24 15:11:00,
2013-05-24 10:43:00,55.0,41.0,-100.00,North,355,0.0,0.0,59,-99.99,,,-99.99,,2013-05-24 15:43:00,
2013-05-24 10:52:00,55.0,41.0,-100.00,North,355,0.0,0.0,59,-99.99,,,-99.99,,2013-05-24 15:52:00,
2013-05-24 11:03:00,55.0,41.0,-100.00,North,355,0.0,0.0,59,-99.99,,,-99.99,,2013-05-24 16:03:00,
2013-05-24 11:12:00,55.0,41.0,-100.00,North,355,0.0,0.0,59,-99.99,,,-99.99,,2013-05-24 16:12:00,
2013-05-24 11:42:00,56.0,40.0,-100.00,North,355,0.0,0.0,55,-99.99,,,-99.99,,2013-05-24 16:42:00,
2013-05-24 11:52:00,56.0,40.0,-100.00,North,355,0.0,0.0,55,-99.99,,,-99.99,,2013-05-24 16:52:00,
2013-05-24 12:02:00,56.0,40.0,-100.00,North,355,0.0,0.0,55,-99.99,,,-99.99,,2013-05-24 17:02:00,
2013-05-24 12:12:00,56.0,40.0,-100.00,North,355,0.0,0.0,55,-99.99,,,-99.99,,2013-05-24 17:12:00,
2013-05-24 12:42:00,59.0,38.0,-100.00,North,355,0.0,0.0,47,-99.99,,,-99.99,,2013-05-24 17:42:00,
2013-05-24 12:52:00,59.0,38.0,-100.00,North,355,0.0,0.0,47,-99.99,,,-99.99,,2013-05-24 17:52:00,
2013-05-24 13:01:00,59.0,38.0,-100.00,North,355,0.0,0.0,47,-99.99,,,-99.99,,2013-05-24 18:01:00,
2013-05-24 13:12:00,59.0,38.0,-100.00,North,355,0.0,0.0,47,-99.99,,,-99.99,,2013-05-24 18:12:00,
2013-05-24 13:42:00,61.0,40.0,-100.00,North,355,0.0,0.0,46,-99.99,,,-99.99,,2013-05-24 18:42:00,
2013-05-24 13:52:00,61.0,40.0,-100.00,North,355,0.0,0.0,46,-99.99,,,-99.99,,2013-05-24 18:52:00,
2013-05-24 14:01:00,61.0,40.0,-100.00,North,355,0.0,0.0,46,-99.99,,,-99.99,,2013-05-24 19:01:00,
2013-05-24 14:11:00,61.0,40.0,-100.00,North,355,0.0,0.0,46,-99.99,,,-99.99,,2013-05-24 19:11:00,
2013-05-24 14:42:00,63.0,41.0,-100.00,North,355,0.0,0.0,45,-99.99,,,-99.99,,2013-05-24 19:42:00,
2013-05-24 14:52:00,63.0,41.0,-100.00,North,355,0.0,0.0,45,-99.99,,,-99.99,,2013-05-24 19:52:00,
2013-05-24 15:02:00,63.0,41.0,-100.00,North,355,0.0,0.0,45,-99.99,,,-99.99,,2013-05-24 20:02:00,
2013-05-24 15:11:00,63.0,41.0,-100.00,North,355,0.0,0.0,45,-99.99,,,-99.99,,2013-05-24 20:11:00,
2013-05-24 15:42:00,66.0,42.0,-100.00,North,355,0.0,0.0,42,-99.99,,,-99.99,,2013-05-24 20:42:00,
2013-05-24 15:52:00,66.0,42.0,-100.00,North,355,0.0,0.0,42,-99.99,,,-99.99,,2013-05-24 20:52:00,
2013-05-24 16:01:00,66.0,42.0,-100.00,North,355,0.0,0.0,42,-99.99,,,-99.99,,2013-05-24 21:01:00,
2013-05-24 16:11:00,66.0,42.0,-100.00,North,355,0.0,0.0,42,-99.99,,,-99.99,,2013-05-24 21:11:00,
2013-05-24 16:43:00,65.0,42.0,-100.00,North,355,0.0,0.0,43,-99.99,,,-99.99,,2013-05-24 21:43:00,
2013-05-24 16:53:00,65.0,42.0,-100.00,North,355,0.0,0.0,43,-99.99,,,-99.99,,2013-05-24 21:53:00,
2013-05-24 17:02:00,65.0,42.0,-100.00,North,355,0.0,0.0,43,-99.99,,,-99.99,,2013-05-24 22:02:00,
2013-05-24 17:12:00,65.0,42.0,-100.00,North,355,0.0,0.0,43,-99.99,,,-99.99,,2013-05-24 22:12:00,
2013-05-24 17:42:00,66.0,41.0,-100.00,North,355,0.0,0.0,40,-99.99,,,-99.99,,2013-05-24 22:42:00,
2013-05-24 17:52:00,66.0,41.0,-100.00,North,355,0.0,0.0,40,-99.99,,,-99.99,,2013-05-24 22:52:00,
2013-05-24 18:02:00,66.0,41.0,-100.00,North,355,0.0,0.0,40,-99.99,,,-99.99,,2013-05-24 23:02:00,
2013-05-24 18:11:00,66.0,41.0,-100.00,North,355,0.0,0.0,40,-99.99,,,-99.99,,2013-05-24 23:11:00,
2013-05-24 18:42:00,68.0,42.0,-100.00,North,355,0.0,0.0,38,-99.99,,,-99.99,,2013-05-24 23:42:00,
2013-05-24 18:52:00,68.0,42.0,-100.00,North,355,0.0,0.0,38,-99.99,,,-99.99,,2013-05-24 23:52:00,
2013-05-24 19:01:00,68.0,42.0,-100.00,North,355,0.0,0.0,38,-99.99,,,-99.99,,2013-05-25 00:01:00,
2013-05-24 19:11:00,68.0,42.0,-100.00,North,355,0.0,0.0,38,-99.99,,,-99.99,,2013-05-25 00:11:00,
2013-05-24 19:42:00,64.0,39.0,-100.00,North,355,0.0,0.0,40,-99.99,,,-99.99,,2013-05-25 00:42:00,
2013-05-24 19:52:00,64.0,39.0,-100.00,North,355,0.0,0.0,40,-99.99,,,-99.99,,2013-05-25 00:52:00,
2013-05-24 20:01:00,64.0,39.0,-100.00,North,355,0.0,0.0,40,-99.99,,,-99.99,,2013-05-25 01:01:00,
2013-05-24 20:11:00,64.0,39.0,-100.00,North,355,0.0,0.0,40,-99.99,,,-99.99,,2013-05-25 01:11:00,
2013-05-24 20:42:00,59.0,40.0,-100.00,North,355,0.0,0.0,49,-99.99,,,-99.99,,2013-05-25 01:42:00,
2013-05-24 20:52:00,59.0,40.0,-100.00,North,355,0.0,0.0,49,-99.99,,,-99.99,,2013-05-25 01:52:00,
2013-05-24 21:02:00,59.0,40.0,-100.00,North,355,0.0,0.0,49,-99.99,,,-99.99,,2013-05-25 02:02:00,
2013-05-24 21:11:00,59.0,40.0,-100.00,North,355,0.0,0.0,49,-99.99,,,-99.99,,2013-05-25 02:11:00,
2013-05-24 21:42:00,54.0,44.0,-100.00,North,355,0.0,0.0,70,-99.99,,,-99.99,,2013-05-25 02:42:00,
2013-05-24 21:52:00,54.0,44.0,-100.00,North,355,0.0,0.0,70,-99.99,,,-99.99,,2013-05-25 02:52:00,
2013-05-24 22:02:00,54.0,44.0,-100.00,North,355,0.0,0.0,70,-99.99,,,-99.99,,2013-05-25 03:02:00,
2013-05-24 22:11:00,54.0,44.0,-100.00,North,355,0.0,0.0,70,-99.99,,,-99.99,,2013-05-25 03:11:00,
2013-05-24 22:43:00,50.0,44.0,-100.00,North,355,0.0,0.0,79,-99.99,,,-99.99,,2013-05-25 03:43:00,
2013-05-24 22:53:00,50.0,44.0,-100.00,North,355,0.0,0.0,79,-99.99,,,-99.99,,2013-05-25 03:53:00,
2013-05-24 23:02:00,50.0,44.0,-100.00,North,355,0.0,0.0,79,-99.99,,,-99.99,,2013-05-25 04:02:00,
2013-05-24 23:13:00,50.0,44.0,-100.00,North,355,0.0,0.0,79,-99.99,,,-99.99,,2013-05-25 04:13:00,